Wind_Speed
19 19 19 20 20 20 22 22 22 22 23 23 23 24 24 23 23 23 23 23 24 24 23 23 23 23 23 23 23 24 23 23 24 24 24 25 24 23
20 20 20 20 21 22 23 23 23 23 23 23 24 24 24 24 24 24 24 25 24 24 24 24 24 24 23 23 24 24 23 23 24 25 25 25 24 23
21 21 22 22 22 23 24 24 25 25 24 24 25 25 25 25 25 24 25 25 25 25 24 24 25 25 24 24 24 23 23 24 24 24 25 24 24 24
23 23 24 24 24 24 25 25 25 25 25 25 25 25 26 26 25 25 25 24 25 25 25 25 25 25 24 24 24 23 24 24 23 24 24 25 26 26
25 26 26 25 25 25 25 25 25 25 25 25 25 26 26 27 26 25 25 24 25 24 24 24 25 25 25 25 24 24 24 24 24 23 23 25 26 26
26 27 26 25 25 25 25 25 26 26 26 26 26 26 27 26 26 25 25 25 25 24 24 25 24 25 25 25 25 25 25 25 25 24 24 25 26 25
27 27 26 25 25 25 25 25 25 26 26 26 27 27 26 27 26 25 25 24 25 25 25 25 25 25 25 25 25 25 25 26 26 25 25 26 26 26
28 26 25 25 25 26 26 26 25 25 26 27 27 27 26 26 26 26 25 25 25 24 25 25 25 25 25 25 25 25 25 25 25 25 25 25 25 25
27 25 25 25 25 26 26 26 26 26 27 27 27 26 26 26 26 26 26 26 25 25 25 25 25 25 25 25 25 26 25 25 25 25 25 25 25 25
27 26 26 26 27 27 27 27 27 27 28 28 28 28 28 27 27 27 26 26 26 26 26 26 26 26 26 26 25 25 25 25 25 25 25 25 25 25
29 28 28 27 28 28 28 28 28 28 29 29 29 29 29 29 29 28 27 27 27 27 26 26 25 26 26 26 26 26 26 26 26 26 26 25 25 25
30 29 29 29 29 29 30 29 29 29 29 30 30 30 30 29 29 29 28 28 27 27 27 27 27 26 26 26 26 26 26 27 27 26 26 25 26 26
30 30 30 30 30 30 30 30 30 30 30 31 31 31 30 30 30 30 30 29 29 29 28 28 27 27 26 25 26 26 27 27 27 27 27 26 25 25
30 30 30 30 30 30 30 30 31 31 31 31 31 32 31 31 31 30 31 30 30 30 30 30 28 28 27 27 26 27 27 27 27 27 27 26 25 25
30 30 30 29 30 31 30 30 31 32 32 31 31 32 32 31 31 31 31 31 31 31 31 31 30 29 28 27 26 26 26 27 27 27 27 26 26 25
32 31 30 30 30 31 31 31 32 32 32 32 32 33 32 32 32 32 32 31 31 31 32 32 31 30 28 26 26 26 26 26 26 27 27 27 27 27
33 32 31 30 31 31 32 32 32 32 32 33 32 33 32 32 32 32 32 32 32 31 31 32 30 29 28 28 28 27 27 26 26 25 26 26 26 26
32 32 32 32 32 31 32 32 32 32 32 32 32 32 32 32 32 32 32 32 32 32 32 32 31 29 29 29 28 28 27 26 26 25 25 25 26 25
32 32 32 32 31 31 31 31 31 31 31 32 32 31 31 32 32 32 32 32 32 32 32 32 31 30 28 28 28 28 27 26 26 26 25 25 26 25
31 31 32 32 32 31 31 31 31 31 31 31 31 30 30 30 30 31 31 31 32 31 31 31 30 30 29 28 27 28 28 27 26 26 25 25 26 25
31 31 31 31 31 32 32 31 31 31 31 31 31 30 29 29 28 29 29 30 30 30 30 30 29 28 28 28 28 27 28 28 27 26 25 25 26 26
29 29 30 31 31 31 31 31 31 31 30 30 30 29 28 28 27 27 28 28 29 29 28 28 27 27 27 26 26 26 27 26 26 25 24 24 24 25
29 30 30 30 30 30 30 30 30 30 30 29 29 28 27 27 27 27 27 27 27 27 27 27 26 26 26 25 25 24 24 24 24 24 23 23 23 24
Wind_Direction
301 302 301 299 296 296 298 297 297 296 298 298 298 297 297 295 293 291 288 285 283 282 282 281 281 280 278 279 279 279 274 273 273 272 269 268 265 262
298 299 300 298 297 296 297 297 297 296 296 298 298 297 297 296 295 292 290 288 284 282 283 283 282 282 279 278 278 278 276 275 274 272 269 267 264 260
299 297 296 297 298 298 297 297 297 297 296 297 298 297 296 296 296 295 293 291 287 284 281 281 281 281 279 279 278 276 275 276 275 274 271 265 263 262
297 296 296 296 298 299 299 298 297 297 297 298 298 297 296 294 294 294 293 289 287 286 281 280 280 279 279 278 276 274 274 275 276 275 270 266 265 263
297 296 295 295 296 298 298 298 298 297 296 295 296 297 297 296 294 293 292 290 289 288 287 284 280 278 277 278 275 273 273 274 274 271 270 269 265 263
294 294 293 293 295 297 297 297 297 297 296 296 296 296 297 296 294 291 291 290 288 288 288 287 284 282 280 278 275 274 272 273 273 271 270 269 265 261
293 293 293 293 295 296 297 298 297 297 297 296 296 295 296 296 294 292 291 290 289 288 287 286 286 284 282 278 274 273 272 273 272 272 272 268 263 260
293 293 292 293 293 294 295 296 297 297 297 296 296 296 296 296 295 293 293 291 288 288 288 288 288 287 284 280 276 273 272 272 272 271 271 268 264 262
293 293 294 293 294 294 294 294 295 296 298 298 297 297 297 296 294 294 294 292 290 288 287 288 288 288 285 281 276 273 270 270 270 269 268 266 264 263
290 291 292 291 291 293 295 296 297 297 297 296 295 295 295 295 294 294 294 294 293 292 291 290 289 287 283 281 278 276 272 270 269 267 267 265 263 262
286 288 288 289 289 290 292 294 296 295 296 295 295 294 294 293 293 293 293 293 293 293 292 290 288 286 284 281 277 274 272 269 267 266 266 265 263 262
285 286 287 288 289 290 291 292 293 294 294 294 295 294 295 292 291 290 291 291 291 290 289 288 287 285 283 279 276 272 271 270 267 266 265 264 263 263
286 286 286 287 288 290 291 290 291 292 292 292 293 293 293 291 290 289 289 291 290 289 287 286 286 285 283 278 274 270 269 268 267 266 264 264 263 263
289 288 286 287 288 290 291 290 290 291 292 292 291 291 291 290 289 289 289 289 289 288 288 287 286 285 281 277 274 270 268 268 267 264 264 263 263 263
290 290 290 289 290 290 291 290 290 290 291 292 291 291 290 289 288 288 288 289 289 289 288 286 286 286 282 278 274 269 266 266 265 263 262 262 263 263
290 290 290 290 290 290 290 290 290 290 291 292 291 291 290 288 288 288 288 288 287 287 287 285 283 283 279 276 275 272 268 266 266 264 263 261 261 260
290 291 291 290 289 290 290 289 290 290 290 291 290 290 289 287 287 287 287 287 286 286 285 284 282 280 277 276 274 271 269 267 267 267 265 262 261 259
290 290 289 290 289 289 291 290 290 290 290 290 290 290 288 288 288 288 287 287 285 284 283 282 281 279 277 274 273 271 268 267 267 266 264 262 261 259
291 290 290 289 289 289 289 289 290 290 290 290 290 288 288 288 288 287 287 287 286 285 284 282 280 278 275 272 271 270 268 266 265 263 263 262 260 258
291 291 290 290 289 290 290 289 290 291 291 291 290 288 288 288 287 287 287 288 288 286 285 283 280 277 275 272 272 270 267 266 264 262 261 261 260 257
292 292 291 292 292 291 292 291 290 290 290 290 290 290 289 288 288 288 288 288 288 288 285 282 279 276 274 273 272 269 268 266 264 261 260 259 258 256
293 292 293 293 293 292 292 292 290 290 290 290 289 289 288 289 289 289 288 289 289 288 286 283 280 278 275 273 271 268 266 264 262 260 259 257 256 254
293 293 293 294 294 294 293 293 292 291 290 289 289 289 289 289 289 289 288 288 288 289 289 287 285 282 278 275 272 267 264 261 260 259 258 257 255 252
Height
5848 5845 5843 5841 5838 5836 5834 5832 5831 5829 5826 5823 5821 5818 5815 5813 5811 5809 5808 5806 5804 5803 5801 5800 5799 5797 5796 5796 5795 5794 5793 5792 5791 5790 5790 5789 5789 5789
5843 5840 5838 5835 5833 5831 5828 5826 5824 5822 5820 5817 5815 5812 5809 5807 5805 5802 5801 5799 5797 5796 5795 5793 5792 5791 5790 5789 5788 5787 5786 5785 5784 5783 5783 5782 5783 5783
5838 5835 5833 5830 5827 5825 5822 5820 5817 5815 5813 5811 5808 5805 5803 5800 5798 5796 5794 5792 5790 5788 5787 5786 5785 5784 5783 5782 5781 5780 5779 5778 5777 5776 5775 5775 5776 5776
5832 5829 5827 5824 5821 5818 5816 5813 5810 5808 5806 5804 5801 5799 5796 5794 5791 5789 5787 5785 5783 5781 5780 5779 5778 5777 5776 5774 5773 5773 5772 5771 5771 5770 5769 5769 5769 5769
5825 5823 5820 5817 5814 5811 5809 5806 5804 5801 5799 5797 5794 5791 5789 5786 5784 5782 5780 5778 5776 5774 5772 5771 5770 5769 5768 5767 5766 5766 5765 5764 5764 5763 5762 5762 5761 5762
5818 5815 5813 5810 5807 5804 5802 5799 5797 5794 5792 5789 5787 5784 5781 5778 5776 5774 5772 5770 5768 5766 5765 5764 5762 5761 5760 5759 5759 5758 5758 5757 5756 5756 5755 5755 5754 5755
5810 5807 5805 5803 5800 5798 5795 5792 5790 5787 5784 5782 5779 5777 5774 5771 5768 5766 5764 5763 5761 5759 5758 5757 5755 5754 5753 5752 5751 5750 5750 5749 5749 5748 5748 5747 5747 5748
5802 5799 5797 5795 5793 5791 5788 5785 5783 5780 5777 5774 5772 5769 5766 5764 5761 5759 5757 5756 5754 5753 5751 5750 5748 5747 5745 5744 5743 5742 5742 5742 5741 5740 5740 5739 5739 5740
5794 5792 5790 5788 5785 5783 5780 5778 5775 5772 5770 5767 5764 5762 5759 5757 5755 5752 5750 5749 5747 5745 5744 5743 5741 5740 5738 5736 5735 5734 5734 5734 5733 5733 5732 5732 5732 5732
5786 5784 5782 5779 5777 5775 5772 5770 5767 5765 5762 5759 5757 5754 5752 5750 5748 5745 5743 5741 5740 5738 5736 5735 5733 5732 5730 5728 5727 5726 5726 5725 5725 5725 5725 5724 5724 5725
5777 5775 5773 5771 5769 5767 5764 5762 5759 5756 5754 5751 5749 5746 5744 5742 5740 5738 5736 5734 5732 5731 5729 5727 5726 5724 5722 5720 5719 5718 5717 5717 5717 5717 5717 5717 5717 5717
5768 5766 5764 5763 5760 5758 5756 5754 5751 5748 5745 5743 5741 5738 5736 5733 5731 5729 5728 5726 5724 5723 5721 5720 5718 5716 5714 5712 5710 5709 5709 5708 5708 5708 5708 5709 5709 5709
5759 5757 5755 5753 5751 5749 5747 5745 5742 5740 5737 5735 5732 5730 5727 5725 5723 5721 5719 5717 5716 5714 5713 5711 5709 5707 5705 5704 5702 5701 5700 5700 5699 5699 5700 5700 5701 5701
5750 5748 5746 5744 5742 5740 5737 5735 5733 5730 5728 5726 5724 5721 5719 5716 5714 5712 5710 5708 5707 5705 5703 5702 5700 5698 5697 5695 5694 5692 5692 5691 5691 5691 5691 5692 5692 5693
5742 5739 5737 5735 5733 5730 5728 5725 5723 5721 5719 5717 5714 5712 5709 5707 5705 5703 5701 5699 5698 5696 5694 5692 5691 5689 5687 5686 5685 5684 5684 5683 5682 5682 5683 5683 5684 5685
5732 5730 5727 5725 5723 5721 5718 5716 5714 5712 5709 5707 5705 5702 5700 5698 5696 5694 5692 5690 5689 5686 5684 5682 5681 5680 5678 5677 5676 5676 5675 5675 5674 5674 5674 5675 5675 5676
5723 5721 5718 5716 5714 5711 5709 5707 5705 5702 5700 5697 5695 5692 5690 5688 5686 5684 5682 5680 5679 5677 5675 5673 5671 5670 5669 5668 5668 5667 5666 5666 5665 5665 5666 5666 5667 5667
5714 5711 5709 5707 5705 5702 5700 5697 5695 5693 5690 5688 5685 5683 5681 5679 5677 5675 5672 5670 5668 5667 5665 5663 5662 5661 5660 5659 5658 5658 5657 5657 5657 5657 5657 5658 5658 5659
5704 5702 5700 5698 5695 5693 5690 5688 5686 5683 5681 5678 5676 5673 5671 5669 5667 5665 5663 5661 5658 5656 5655 5653 5652 5651 5650 5650 5649 5648 5648 5648 5648 5649 5649 5650 5650 5651
5695 5693 5690 5688 5685 5683 5681 5678 5676 5674 5671 5669 5667 5664 5662 5660 5658 5656 5653 5651 5649 5647 5645 5643 5642 5641 5641 5641 5640 5639 5639 5639 5640 5640 5641 5641 5642 5642
5685 5683 5681 5678 5676 5674 5671 5669 5667 5665 5662 5660 5657 5655 5652 5650 5648 5646 5644 5642 5639 5637 5635 5634 5632 5632 5631 5631 5631 5630 5630 5630 5630 5631 5632 5633 5634 5634
5676 5674 5672 5669 5667 5665 5662 5660 5657 5655 5653 5651 5648 5646 5644 5642 5640 5637 5635 5633 5631 5629 5627 5625 5623 5622 5622 5621 5621 5621 5621 5621 5621 5622 5623 5625 5625 5627
5668 5665 5663 5660 5658 5655 5653 5650 5648 5646 5643 5641 5639 5637 5635 5633 5631 5629 5627 5624 5622 5620 5618 5616 5615 5614 5613 5612 5612 5612 5612 5612 5613 5614 5615 5616 5617 5618